Airfield :
LOGIN :

Register | Disclaimer

   EN    FR    IT 

 










Legend :    VFR   Marginal VFR   IFR   Intensive IFR   Very Intensive IFR
Visi :
Ceiling :
>= 8 km
>= 3000ft
5 to 8 km
1000 to 3000 ft
1500m to 5 km
500 to 1000 ft
800 to 1500m
200 to 500 ft
< 800m
< 200 ft
Symbols :   Thunderstorms  Fog  Heavy snow  Heavy precipitations  Wind > 20 kt
SIGMETs :     Misc.  Thunderstorms  Icing  Turbulence  Mountain Waves  Volcanic Ashes






- Airport Elevation : 161 ft
- IATA code : PMF


LIMP - Parma

CURRENT METAR :
  • 131550Z 21010KT 180V240 CAVOK 31/16 Q1009

EXPIRED METARs :
  • 131450Z 22012KT 9999 FEW030 31/17 Q1009
  • 131350Z 24014KT 9999 SCT030 32/18 Q1009
  • 131250Z 22011KT 190V250 9999 SCT029 32/18 Q1009
  • 131150Z 17004KT 110V210 9999 SCT029 31/17 Q1009

TAF TAF LIMP
Valid from the 13 at 12:00 until the 14 at 12:00 UTC


131100Z 1312/1412 23012KT CAVOK
BECMG 1318/1320 VRB05KT



MET'MAP, your aeronautical weather chart ! - Copyright ORBIFLY December 2007 - Disclaimer

ORBIFLY MET'MAP TEAM :

Programming & Development : Alexandra Zaïnal
Original concept : Baudouin d'Aumeries
Technical & hardware support : Manuel Goepfert
Assistance : Marc-Olivier Méhu




SOURCES & CREDITS :

   NOAA